| time (UTC) | temp F | wind direction | speed knots | gust knots | rain 1hr in | rain 24hr in | rain mn in | humidity % | barometer mb |
| 20260904220006 | 89 | 163 | 1.7 | 4.3 | 0.00 | 0.00 | 0.00 | 69 | 1007.6 |
| 20260904215505 | 89 | 163 | 2.6 | 4.3 | 0.00 | 0.00 | 0.00 | 69 | 1007.7 |
| 20260904215006 | 89 | 163 | 1.7 | 4.3 | 0.00 | 0.00 | 0.00 | 70 | 1007.6 |
| 20260904214506 | 90 | 163 | 1.7 | 4.3 | 0.00 | 0.00 | 0.00 | 70 | 1007.7 |
| 20260904214005 | 90 | 163 | 3.5 | 6.1 | 0.00 | 0.00 | 0.00 | 69 | 1007.6 |
| 20260904213006 | 90 | 175 | 2.6 | 6.1 | 0.00 | 0.00 | 0.00 | 67 | 1007.7 |
| 20260904212005 | 90 | 153 | 1.7 | 4.3 | 0.00 | 0.00 | 0.00 | 69 | 1007.7 |
| 20260904211505 | 90 | 144 | 1.7 | 2.6 | 0.00 | 0.00 | 0.00 | 70 | 1007.7 |
| 20260904211006 | 91 | 158 | 1.7 | 4.3 | 0.00 | 0.00 | 0.00 | 69 | 1007.7 |
| 20260904210506 | 91 | 144 | 1.7 | 5.2 | 0.00 | 0.00 | 0.00 | 68 | 1007.6 |
| 20260904210005 | 91 | 161 | 2.6 | 5.2 | 0.00 | 0.00 | 0.00 | 67 | 1007.6 |
| 20260904205506 | 91 | 163 | 1.7 | 5.2 | 0.00 | 0.00 | 0.00 | 67 | 1007.7 |
| 20260904205006 | 91 | 146 | 1.7 | 2.6 | 0.00 | 0.00 | 0.00 | 68 | 1007.6 |
| 20260904204006 | 91 | 144 | 1.7 | 4.3 | 0.00 | 0.00 | 0.00 | 67 | 1007.6 |
| 20260904203505 | 91 | 143 | 1.7 | 2.6 | 0.00 | 0.00 | 0.00 | 67 | 1007.6 |
| 20260904203005 | 91 | 144 | 1.7 | 5.2 | 0.00 | 0.00 | 0.00 | 68 | 1007.6 |
| 20260904202505 | 92 | 170 | 2.6 | 5.2 | 0.00 | 0.00 | 0.00 | 67 | 1007.6 |
| 20260904202005 | 92 | 170 | 1.7 | 4.3 | 0.00 | 0.00 | 0.00 | 67 | 1007.6 |
| 20260904200505 | 92 | 170 | 2.6 | 4.3 | 0.00 | 0.00 | 0.00 | 64 | 1007.6 |
| 20260904200005 | 93 | 170 | 1.7 | 4.3 | 0.00 | 0.00 | 0.00 | 66 | 1007.6 |
| 20260904195506 | 93 | 170 | 0.9 | 2.6 | 0.00 | 0.00 | 0.00 | 66 | 1007.6 |
| 20260904194006 | 93 | 170 | 1.7 | 5.2 | 0.00 | 0.00 | 0.00 | 63 | 1007.6 |
| 20260904193506 | 94 | 170 | 0.9 | 1.7 | 0.00 | 0.00 | 0.00 | 61 | 1007.6 |
| 20260904193006 | 94 | 170 | 0.0 | 4.3 | 0.00 | 0.00 | 0.00 | 61 | 1007.6 |
| 20260904192506 | 94 | 170 | 2.6 | 4.3 | 0.00 | 0.00 | 0.00 | 60 | 1007.6 |
| 20260904192006 | 94 | 153 | 0.9 | 2.6 | 0.00 | 0.00 | 0.00 | 62 | 1007.6 |
| 20260904191506 | 95 | 153 | 1.7 | 5.2 | 0.00 | 0.00 | 0.00 | 60 | 1007.6 |
| 20260904191006 | 95 | 165 | 0.9 | 2.6 | 0.00 | 0.00 | 0.00 | 62 | 1007.5 |
| 20260904190505 | 95 | 165 | 1.7 | 4.3 | 0.00 | 0.00 | 0.00 | 61 | 1007.6 |
| 20260904190006 | 95 | 169 | 0.9 | 2.6 | 0.00 | 0.00 | 0.00 | 61 | 1007.6 |
| 20260904185505 | 95 | 169 | 0.9 | 2.6 | 0.00 | 0.00 | 0.00 | 60 | 1007.6 |
| 20260904185005 | 95 | 147 | 0.9 | 2.6 | 0.00 | 0.00 | 0.00 | 61 | 1007.6 |
| 20260904184505 | 95 | 160 | 0.9 | 6.1 | 0.00 | 0.00 | 0.00 | 60 | 1007.6 |
| 20260904184006 | 95 | 174 | 2.6 | 6.1 | 0.00 | 0.00 | 0.00 | 60 | 1007.6 |
| 20260904183506 | 95 | 155 | 0.9 | 2.6 | 0.00 | 0.00 | 0.00 | 61 | 1007.6 |
| 20260904183006 | 94 | 152 | 0.9 | 7.0 | 0.00 | 0.00 | 0.00 | 61 | 1007.6 |
| 20260904182505 | 94 | 74 | 0.9 | 7.0 | 0.00 | 0.00 | 0.00 | 60 | 1007.7 |
| 20260904182006 | 94 | 175 | 1.7 | 5.2 | 0.00 | 0.00 | 0.00 | 61 | 1007.7 |
| 20260904181506 | 94 | 137 | 1.7 | 5.2 | 0.00 | 0.00 | 0.00 | 61 | 1007.7 |
| 20260904181005 | 94 | 163 | 0.9 | 4.3 | 0.00 | 0.00 | 0.00 | 61 | 1007.7 |
| 20260904180506 | 94 | 163 | 1.7 | 5.2 | 0.00 | 0.00 | 0.00 | 61 | 1007.7 |
| 20260904180005 | 94 | 161 | 1.7 | 5.2 | 0.00 | 0.00 | 0.00 | 62 | 1007.7 |
| 20260904175505 | 93 | 161 | 0.9 | 2.6 | 0.00 | 0.00 | 0.00 | 62 | 1007.7 |
| 20260904175006 | 93 | 161 | 1.7 | 4.3 | 0.00 | 0.00 | 0.00 | 60 | 1007.8 |
| 20260904174505 | 94 | 161 | 2.6 | 5.2 | 0.00 | 0.00 | 0.00 | 61 | 1007.8 |
| 20260904173005 | 93 | 167 | 0.0 | 2.6 | 0.00 | 0.00 | 0.00 | 62 | 1007.7 |
| 20260904172505 | 93 | 167 | 0.9 | 2.6 | 0.00 | 0.00 | 0.00 | 61 | 1007.8 |
| 20260904172006 | 93 | 167 | 2.6 | 5.2 | 0.00 | 0.00 | 0.00 | 63 | 1007.8 |
| 20260904171506 | 92 | 163 | 0.9 | 5.2 | 0.00 | 0.00 | 0.00 | 64 | 1007.8 |
| 20260904171006 | 92 | 161 | 0.0 | 0.9 | 0.00 | 0.00 | 0.00 | 64 | 1007.8 |
| 20260904170505 | 92 | 161 | 0.9 | 1.7 | 0.00 | 0.00 | 0.00 | 65 | 1007.8 |
| 20260904170005 | 92 | 161 | 0.0 | 2.6 | 0.00 | 0.00 | 0.00 | 65 | 1007.8 |
| 20260904165505 | 92 | 161 | 0.9 | 1.7 | 0.00 | 0.00 | 0.00 | 63 | 1007.9 |
| 20260904165006 | 91 | 161 | 0.9 | 2.6 | 0.00 | 0.00 | 0.00 | 66 | 1007.8 |
| 20260904164506 | 91 | 161 | 0.9 | 2.6 | 0.00 | 0.00 | 0.00 | 64 | 1007.8 |
| 20260904164006 | 90 | 161 | 0.0 | 1.7 | 0.00 | 0.00 | 0.00 | 67 | 1007.7 |
| 20260904162505 | 89 | 161 | 0.9 | 2.6 | 0.00 | 0.00 | 0.00 | 66 | 1007.7 |
| 20260904162005 | 89 | 161 | 0.0 | 0.9 | 0.00 | 0.00 | 0.00 | 69 | 1007.8 |
| 20260904161505 | 88 | 161 | 0.9 | 1.7 | 0.00 | 0.00 | 0.00 | 68 | 1007.9 |
| 20260904161006 | 88 | 161 | 0.9 | 1.7 | 0.00 | 0.00 | 0.00 | 68 | 1007.9 |
| 20260904160005 | 88 | 161 | 0.0 | 1.7 | 0.00 | 0.00 | 0.00 | 71 | 1007.9 |
| 20260904155505 | 87 | 161 | 0.0 | 0.9 | 0.00 | 0.00 | 0.00 | 70 | 1007.9 |
| 20260904155005 | 87 | 161 | 0.0 | 1.7 | 0.00 | 0.00 | 0.00 | 70 | 1008.0 |
| 20260904154505 | 87 | 161 | 0.9 | 2.6 | 0.00 | 0.00 | 0.00 | 69 | 1008.1 |
| 20260904154005 | 86 | 161 | 0.0 | 0.9 | 0.00 | 0.00 | 0.00 | 75 | 1008.0 |
| 20260904153505 | 85 | 161 | 0.0 | 1.7 | 0.00 | 0.00 | 0.00 | 73 | 1008.1 |
| 20260904153005 | 85 | 161 | 0.9 | 1.7 | 0.00 | 0.00 | 0.00 | 74 | 1008.0 |
| 20260904152506 | 84 | 161 | 0.0 | 2.6 | 0.00 | 0.00 | 0.00 | 76 | 1008.0 |
| 20260904152005 | 84 | 161 | 0.0 | 0.9 | 0.00 | 0.00 | 0.00 | 77 | 1008.0 |
| 20260904151506 | 83 | 161 | 0.0 | 0.9 | 0.00 | 0.00 | 0.00 | 78 | 1007.9 |
| 20260904151006 | 83 | 161 | 0.0 | 0.9 | 0.00 | 0.00 | 0.00 | 76 | 1007.9 |
| 20260904150506 | 82 | 161 | 0.0 | 0.0 | 0.00 | 0.00 | 0.00 | 78 | 1007.9 |
| 20260904145005 | 80 | 161 | 0.0 | 1.7 | 0.00 | 0.00 | 0.00 | 82 | 1008.0 |
| 20260904144506 | 80 | 161 | 0.9 | 1.7 | 0.00 | 0.00 | 0.00 | 82 | 1008.0 |
| 20260904144005 | 80 | 161 | 0.0 | 2.6 | 0.00 | 0.00 | 0.00 | 82 | 1008.0 |
| 20260904143506 | 79 | 163 | 0.9 | 2.6 | 0.00 | 0.00 | 0.00 | 82 | 1007.9 |
| 20260904143006 | 79 | 163 | 0.0 | 0.9 | 0.00 | 0.00 | 0.00 | 83 | 1007.9 |
| 20260904142506 | 79 | 163 | 0.0 | 2.6 | 0.00 | 0.00 | 0.00 | 84 | 1007.8 |
| 20260904142006 | 78 | 163 | 0.9 | 1.7 | 0.00 | 0.00 | 0.00 | 84 | 1007.9 |
| 20260904141505 | 78 | 163 | 0.9 | 2.6 | 0.00 | 0.00 | 0.00 | 84 | 1007.9 |
| 20260904141005 | 78 | 163 | 0.9 | 1.7 | 0.00 | 0.00 | 0.00 | 85 | 1007.7 |
| 20260904140505 | 78 | 163 | 0.9 | 1.7 | 0.00 | 0.00 | 0.00 | 85 | 1007.6 |
| 20260904140005 | 77 | 163 | 0.9 | 1.7 | 0.00 | 0.00 | 0.00 | 86 | 1007.6 |
| 20260904135506 | 77 | 163 | 0.9 | 2.6 | 0.00 | 0.00 | 0.00 | 86 | 1007.7 |
| 20260904135005 | 77 | 163 | 0.9 | 1.7 | 0.00 | 0.00 | 0.00 | 87 | 1007.7 |
| 20260904134505 | 76 | 163 | 0.9 | 1.7 | 0.00 | 0.00 | 0.00 | 87 | 1007.7 |
| 20260904134006 | 76 | 163 | 0.9 | 2.6 | 0.00 | 0.00 | 0.00 | 87 | 1007.7 |
| 20260904133506 | 76 | 163 | 0.9 | 2.6 | 0.00 | 0.00 | 0.00 | 87 | 1007.7 |
| 20260904133006 | 76 | 163 | 0.9 | 4.3 | 0.00 | 0.00 | 0.00 | 88 | 1007.7 |
| 20260904132506 | 76 | 163 | 1.7 | 4.3 | 0.00 | 0.00 | 0.00 | 88 | 1007.7 |
| 20260904132006 | 75 | 163 | 1.7 | 4.3 | 0.00 | 0.00 | 0.00 | 88 | 1007.7 |
| 20260904131505 | 75 | 163 | 0.9 | 2.6 | 0.00 | 0.00 | 0.00 | 89 | 1007.7 |
| 20260904131005 | 75 | 163 | 1.7 | 4.3 | 0.00 | 0.00 | 0.00 | 90 | 1007.7 |
| 20260904130506 | 74 | 163 | 0.9 | 2.6 | 0.00 | 0.00 | 0.00 | 90 | 1007.6 |
| 20260904130006 | 74 | 163 | 2.6 | 5.2 | 0.00 | 0.00 | 0.00 | 91 | 1007.6 |
| 20260904125511 | 74 | 163 | 1.7 | 5.2 | 0.00 | 0.00 | 0.00 | 91 | 1007.6 |
| 20260904125006 | 73 | 163 | 0.9 | 2.6 | 0.00 | 0.00 | 0.00 | 91 | 1007.4 |
| 20260904124506 | 73 | 163 | 0.9 | 1.7 | 0.00 | 0.00 | 0.00 | 91 | 1007.3 |
| 20260904124006 | 73 | 163 | 0.9 | 1.7 | 0.00 | 0.00 | 0.00 | 91 | 1007.3 |
| 20260904123506 | 73 | 163 | 0.9 | 1.7 | 0.00 | 0.00 | 0.00 | 91 | 1007.3 |
| 20260904123005 | 73 | 163 | 0.9 | 1.7 | 0.00 | 0.00 | 0.00 | 91 | 1007.2 |
| 20260904122505 | 72 | 163 | 0.9 | 1.7 | 0.00 | 0.00 | 0.00 | 91 | 1007.2 |
| 20260904121505 | 72 | 163 | 0.9 | 2.6 | 0.00 | 0.00 | 0.00 | 91 | 1007.1 |
| 20260904121006 | 72 | 163 | 0.0 | 1.7 | 0.00 | 0.00 | 0.00 | 91 | 1007.1 |
| 20260904120505 | 73 | 163 | 0.9 | 1.7 | 0.00 | 0.00 | 0.00 | 91 | 1007.2 |
| 20260904120006 | 72 | 163 | 1.7 | 1.7 | 0.00 | 0.00 | 0.00 | 91 | 1007.2 |
| 20260904115505 | 73 | 163 | 0.9 | 2.6 | 0.00 | 0.01 | 0.00 | 91 | 1007.2 |
| 20260904115006 | 73 | 163 | 0.9 | 1.7 | 0.00 | 0.01 | 0.00 | 91 | 1007.2 |
| 20260904114505 | 73 | 163 | 0.9 | 2.6 | 0.00 | 0.02 | 0.00 | 90 | 1007.0 |
| 20260904113505 | 73 | 163 | 0.9 | 1.7 | 0.00 | 0.02 | 0.00 | 90 | 1007.0 |
| 20260904113006 | 73 | 163 | 0.9 | 2.6 | 0.00 | 0.03 | 0.00 | 90 | 1007.0 |
| 20260904112006 | 73 | 163 | 0.9 | 1.7 | 0.00 | 0.04 | 0.00 | 90 | 1007.0 |
| 20260904111505 | 73 | 163 | 0.9 | 1.7 | 0.00 | 0.05 | 0.00 | 90 | 1007.0 |
| 20260904111005 | 73 | 163 | 0.9 | 1.7 | 0.00 | 0.05 | 0.00 | 89 | 1007.0 |
| 20260904110505 | 74 | 163 | 0.0 | 1.7 | 0.00 | 0.05 | 0.00 | 89 | 1006.9 |
| 20260904110005 | 74 | 163 | 0.0 | 0.0 | 0.00 | 0.06 | 0.00 | 89 | 1006.9 |
| 20260904105505 | 74 | 163 | 0.0 | 0.0 | 0.00 | 0.06 | 0.00 | 89 | 1006.9 |
| 20260904105005 | 74 | 163 | 0.0 | 0.0 | 0.00 | 0.07 | 0.00 | 88 | 1006.9 |
| 20260904104505 | 74 | 163 | 0.0 | 0.0 | 0.00 | 0.07 | 0.00 | 88 | 1006.9 |
| 20260904104006 | 74 | 163 | 0.0 | 0.0 | 0.00 | 0.08 | 0.00 | 88 | 1006.9 |
| 20260904103506 | 75 | 163 | 0.0 | 0.0 | 0.00 | 0.08 | 0.00 | 88 | 1006.8 |
| 20260904102506 | 75 | 163 | 0.0 | 0.0 | 0.00 | 0.10 | 0.00 | 88 | 1007.0 |
| 20260904102006 | 75 | 163 | 0.0 | 0.0 | 0.00 | 0.10 | 0.00 | 88 | 1006.9 |
| 20260904101505 | 75 | 163 | 0.0 | 0.0 | 0.00 | 0.10 | 0.00 | 88 | 1006.9 |
| 20260904101005 | 75 | 163 | 0.0 | 0.0 | 0.00 | 0.10 | 0.00 | 88 | 1006.9 |
| 20260904100505 | 75 | 163 | 0.0 | 0.0 | 0.00 | 0.11 | 0.00 | 88 | 1006.9 |
| 20260904100005 | 75 | 163 | 0.0 | 1.7 | 0.00 | 0.11 | 0.00 | 88 | 1006.9 |
| 20260904095505 | 75 | 163 | 0.0 | 1.7 | 0.00 | 0.11 | 0.00 | 88 | 1006.8 |
| 20260904095006 | 75 | 163 | 0.9 | 1.7 | 0.00 | 0.11 | 0.00 | 88 | 1006.8 |
| 20260904094505 | 75 | 163 | 0.9 | 1.7 | 0.00 | 0.11 | 0.00 | 88 | 1006.7 |
| 20260904093505 | 75 | 163 | 0.9 | 2.6 | 0.00 | 0.11 | 0.00 | 88 | 1006.6 |
| 20260904093005 | 75 | 163 | 0.9 | 2.6 | 0.00 | 0.11 | 0.00 | 88 | 1006.7 |
| 20260904092505 | 75 | 163 | 0.9 | 1.7 | 0.00 | 0.11 | 0.00 | 89 | 1006.6 |
| 20260904092005 | 75 | 163 | 0.0 | 1.7 | 0.00 | 0.11 | 0.00 | 89 | 1006.7 |
| 20260904091506 | 75 | 163 | 0.9 | 1.7 | 0.00 | 0.11 | 0.00 | 89 | 1006.5 |
| 20260904091006 | 75 | 163 | 0.0 | 1.7 | 0.00 | 0.11 | 0.00 | 89 | 1006.5 |
| 20260904090506 | 75 | 163 | 0.9 | 2.6 | 0.00 | 0.11 | 0.00 | 89 | 1006.4 |
| 20260904090006 | 75 | 163 | 1.7 | 2.6 | 0.00 | 0.11 | 0.00 | 89 | 1006.4 |
| 20260904085006 | 75 | 163 | 0.9 | 2.6 | 0.00 | 0.11 | 0.00 | 89 | 1006.4 |
| 20260904084507 | 75 | 163 | 0.9 | 2.6 | 0.00 | 0.11 | 0.00 | 89 | 1006.3 |
| 20260904084006 | 75 | 163 | 1.7 | 4.3 | 0.00 | 0.11 | 0.00 | 89 | 1006.2 |
| 20260904083006 | 75 | 163 | 1.7 | 2.6 | 0.00 | 0.11 | 0.00 | 90 | 1006.0 |
| 20260904082506 | 75 | 163 | 1.7 | 4.3 | 0.00 | 0.11 | 0.00 | 90 | 1006.1 |
| 20260904082006 | 75 | 163 | 1.7 | 2.6 | 0.00 | 0.11 | 0.00 | 90 | 1006.1 |
| 20260904081506 | 75 | 163 | 1.7 | 2.6 | 0.00 | 0.11 | 0.00 | 90 | 1006.0 |
| 20260904081006 | 75 | 163 | 1.7 | 2.6 | 0.00 | 0.11 | 0.00 | 90 | 1006.0 |
| 20260904080006 | 75 | 163 | 1.7 | 4.3 | 0.00 | 0.11 | 0.00 | 90 | 1006.0 |
| 20260904075506 | 75 | 163 | 1.7 | 2.6 | 0.00 | 0.11 | 0.00 | 90 | 1006.1 |
| 20260904075006 | 75 | 163 | 1.7 | 2.6 | 0.00 | 0.11 | 0.00 | 90 | 1006.2 |
| 20260904074506 | 76 | 163 | 1.7 | 4.3 | 0.00 | 0.11 | 0.00 | 90 | 1006.2 |
| 20260904073506 | 76 | 163 | 1.7 | 4.3 | 0.00 | 0.11 | 0.00 | 90 | 1006.3 |
| 20260904073007 | 76 | 163 | 1.7 | 4.3 | 0.00 | 0.11 | 0.00 | 90 | 1006.4 |
| 20260904072506 | 76 | 163 | 1.7 | 2.6 | 0.00 | 0.11 | 0.00 | 90 | 1006.4 |
| 20260904070007 | 76 | 163 | 1.7 | 2.6 | 0.00 | 0.11 | 0.00 | 90 | 1006.5 |
| 20260904065506 | 76 | 163 | 0.9 | 2.6 | 0.00 | 0.11 | 0.00 | 90 | 1006.5 |
| 20260904065007 | 76 | 163 | 1.7 | 4.3 | 0.00 | 0.11 | 0.00 | 90 | 1006.5 |
| 20260904064507 | 76 | 163 | 1.7 | 4.3 | 0.00 | 0.11 | 0.00 | 90 | 1006.6 |
| 20260904064007 | 76 | 163 | 1.7 | 4.3 | 0.00 | 0.11 | 0.00 | 90 | 1006.6 |
| 20260904063506 | 76 | 164 | 0.9 | 2.6 | 0.00 | 0.11 | 0.00 | 90 | 1006.6 |
| 20260904063007 | 76 | 164 | 1.7 | 2.6 | 0.00 | 0.11 | 0.00 | 90 | 1006.7 |
| 20260904062506 | 76 | 164 | 0.9 | 2.6 | 0.00 | 0.11 | 0.00 | 90 | 1006.6 |
| 20260904061506 | 76 | 164 | 0.9 | 2.6 | 0.00 | 0.11 | 0.00 | 90 | 1006.7 |
| 20260904061006 | 76 | 164 | 1.7 | 2.6 | 0.00 | 0.11 | 0.00 | 90 | 1006.7 |
| 20260904060506 | 76 | 164 | 0.9 | 2.6 | 0.00 | 0.11 | 0.00 | 90 | 1006.7 |
| 20260904060006 | 76 | 164 | 0.9 | 2.6 | 0.00 | 0.11 | 0.00 | 90 | 1006.7 |
| 20260904055506 | 76 | 164 | 1.7 | 4.3 | 0.00 | 0.11 | 0.00 | 90 | 1006.7 |
| 20260904055006 | 76 | 164 | 0.9 | 2.6 | 0.00 | 0.11 | 0.00 | 90 | 1006.6 |
| 20260904054506 | 76 | 164 | 1.7 | 4.3 | 0.00 | 0.11 | 0.00 | 90 | 1006.7 |
| 20260904054007 | 76 | 164 | 1.7 | 4.3 | 0.00 | 0.11 | 0.00 | 90 | 1006.6 |
| 20260904053506 | 76 | 164 | 1.7 | 2.6 | 0.00 | 0.11 | 0.00 | 90 | 1006.6 |
| 20260904053006 | 76 | 164 | 1.7 | 2.6 | 0.00 | 0.11 | 0.00 | 90 | 1006.6 |
| 20260904052506 | 76 | 164 | 0.9 | 2.6 | 0.00 | 0.11 | 0.00 | 90 | 1006.7 |
| 20260904051506 | 76 | 164 | 0.9 | 2.6 | 0.00 | 0.11 | 0.00 | 90 | 1006.7 |
| 20260904051006 | 76 | 164 | 1.7 | 2.6 | 0.00 | 0.11 | 0.00 | 90 | 1006.7 |
| 20260904050506 | 76 | 164 | 0.9 | 2.6 | 0.00 | 0.11 | 0.00 | 89 | 1006.7 |
| 20260904050007 | 76 | 164 | 1.7 | 4.3 | 0.00 | 0.11 | 0.00 | 89 | 1006.7 |
| 20260904045506 | 76 | 163 | 0.9 | 1.7 | 0.00 | 0.11 | 0.11 | 89 | 1006.7 |
| 20260904045007 | 77 | 163 | 0.9 | 2.6 | 0.00 | 0.11 | 0.11 | 89 | 1006.7 |
| 20260904044506 | 77 | 163 | 0.9 | 2.6 | 0.00 | 0.11 | 0.11 | 89 | 1006.7 |
| 20260904044007 | 77 | 163 | 1.7 | 5.2 | 0.00 | 0.11 | 0.11 | 89 | 1006.7 |
| 20260904043507 | 77 | 169 | 1.7 | 4.3 | 0.00 | 0.11 | 0.11 | 89 | 1006.7 |
| 20260904043006 | 77 | 169 | 0.9 | 2.6 | 0.00 | 0.11 | 0.11 | 89 | 1006.7 |
| 20260904042506 | 77 | 169 | 0.9 | 2.6 | 0.00 | 0.11 | 0.11 | 89 | 1006.6 |
| 20260904042006 | 77 | 169 | 0.9 | 2.6 | 0.00 | 0.11 | 0.11 | 89 | 1006.6 |
| 20260904041006 | 77 | 169 | 1.7 | 2.6 | 0.00 | 0.11 | 0.11 | 89 | 1006.6 |
| 20260904040506 | 77 | 169 | 0.9 | 2.6 | 0.00 | 0.11 | 0.11 | 88 | 1006.7 |
| 20260904040006 | 77 | 169 | 0.9 | 4.3 | 0.00 | 0.11 | 0.11 | 88 | 1006.7 |
| 20260904035506 | 77 | 169 | 0.9 | 4.3 | 0.00 | 0.11 | 0.11 | 88 | 1006.8 |
| 20260904035006 | 77 | 169 | 0.9 | 1.7 | 0.00 | 0.11 | 0.11 | 88 | 1006.7 |
| 20260904034506 | 77 | 169 | 0.9 | 4.3 | 0.00 | 0.11 | 0.11 | 88 | 1006.7 |
| 20260904034006 | 77 | 169 | 0.9 | 2.6 | 0.00 | 0.11 | 0.11 | 88 | 1006.8 |
| 20260904033506 | 77 | 169 | 0.9 | 4.3 | 0.00 | 0.11 | 0.11 | 88 | 1006.8 |
| 20260904033006 | 77 | 170 | 0.9 | 2.6 | 0.00 | 0.11 | 0.11 | 87 | 1006.8 |
| 20260904032506 | 77 | 170 | 1.7 | 2.6 | 0.00 | 0.11 | 0.11 | 87 | 1006.8 |
| 20260904032006 | 77 | 169 | 0.9 | 4.3 | 0.00 | 0.11 | 0.11 | 87 | 1006.8 |
| 20260904031506 | 78 | 172 | 1.7 | 2.6 | 0.00 | 0.11 | 0.11 | 87 | 1006.8 |
| 20260904031006 | 78 | 172 | 0.9 | 2.6 | 0.00 | 0.11 | 0.11 | 87 | 1006.8 |
| 20260904030507 | 78 | 172 | 1.7 | 1.7 | 0.00 | 0.11 | 0.11 | 87 | 1006.8 |
| 20260904030006 | 78 | 172 | 1.7 | 4.3 | 0.00 | 0.11 | 0.11 | 87 | 1006.7 |
| 20260904025506 | 78 | 174 | 0.9 | 2.6 | 0.00 | 0.11 | 0.11 | 87 | 1006.6 |
| 20260904024506 | 78 | 157 | 0.9 | 1.7 | 0.00 | 0.11 | 0.11 | 86 | 1006.8 |
| 20260904024006 | 78 | 157 | 0.9 | 4.3 | 0.00 | 0.11 | 0.11 | 86 | 1006.8 |
| 20260904023506 | 78 | 157 | 0.9 | 4.3 | 0.00 | 0.11 | 0.11 | 86 | 1006.8 |
| 20260904022506 | 78 | 159 | 0.9 | 4.3 | 0.00 | 0.11 | 0.11 | 86 | 1006.7 |
| 20260904022006 | 78 | 159 | 1.7 | 4.3 | 0.00 | 0.11 | 0.11 | 86 | 1006.7 |
| 20260904021006 | 78 | 158 | 1.7 | 4.3 | 0.00 | 0.11 | 0.11 | 86 | 1006.7 |
| 20260904020506 | 78 | 158 | 1.7 | 4.3 | 0.00 | 0.11 | 0.11 | 86 | 1006.6 |
| 20260904020006 | 78 | 158 | 1.7 | 4.3 | 0.00 | 0.11 | 0.11 | 86 | 1006.4 |
| 20260904015506 | 78 | 161 | 1.7 | 4.3 | 0.00 | 0.11 | 0.11 | 86 | 1006.2 |
| 20260904015006 | 78 | 169 | 2.6 | 5.2 | 0.00 | 0.11 | 0.11 | 86 | 1006.4 |
| 20260904014506 | 78 | 156 | 1.7 | 2.6 | 0.00 | 0.11 | 0.11 | 86 | 1006.4 |
| 20260904014006 | 78 | 156 | 2.6 | 7.0 | 0.00 | 0.11 | 0.11 | 86 | 1006.3 |
| 20260904013506 | 78 | 169 | 1.7 | 5.2 | 0.00 | 0.11 | 0.11 | 85 | 1006.2 |
| 20260904013006 | 79 | 167 | 2.6 | 4.3 | 0.00 | 0.11 | 0.11 | 85 | 1006.4 |
| 20260904012506 | 79 | 155 | 0.9 | 5.2 | 0.00 | 0.11 | 0.11 | 85 | 1006.4 |
| 20260904012006 | 79 | 161 | 1.7 | 6.1 | 0.00 | 0.11 | 0.11 | 85 | 1006.4 |
| 20260904011506 | 79 | 160 | 1.7 | 4.3 | 0.00 | 0.11 | 0.11 | 85 | 1006.5 |
| 20260904011007 | 79 | 160 | 1.7 | 4.3 | 0.00 | 0.11 | 0.11 | 84 | 1006.5 |
| 20260904010506 | 79 | 160 | 1.7 | 4.3 | 0.00 | 0.11 | 0.11 | 84 | 1006.6 |
| 20260904004507 | 80 | 156 | 0.9 | 7.0 | 0.00 | 0.11 | 0.11 | 83 | 1006.4 |
| 20260904004007 | 80 | 153 | 1.7 | 7.0 | 0.00 | 0.11 | 0.11 | 82 | 1006.3 |
| 20260904003506 | 80 | 175 | 0.9 | 2.6 | 0.00 | 0.11 | 0.11 | 82 | 1006.3 |
| 20260904003006 | 80 | 177 | 1.7 | 2.6 | 0.00 | 0.11 | 0.11 | 82 | 1006.3 |
| 20260904002506 | 80 | 165 | 2.6 | 6.1 | 0.00 | 0.11 | 0.11 | 81 | 1006.3 |
| 20260904001507 | 80 | 234 | 2.6 | 5.2 | 0.00 | 0.11 | 0.11 | 81 | 1006.3 |
| 20260904001007 | 80 | 148 | 1.7 | 5.2 | 0.00 | 0.11 | 0.11 | 80 | 1006.2 |
| 20260904000506 | 81 | 169 | 1.7 | 4.3 | 0.00 | 0.11 | 0.11 | 80 | 1006.0 |
| 20260903235506 | 81 | 168 | 1.7 | 5.2 | 0.00 | 0.11 | 0.11 | 80 | 1006.1 |
| 20260903235006 | 81 | 163 | 1.7 | 5.2 | 0.00 | 0.11 | 0.11 | 79 | 1006.0 |
| 20260903233506 | 81 | 163 | 1.7 | 5.2 | 0.00 | 0.11 | 0.11 | 78 | 1006.0 |
| 20260903233006 | 81 | 163 | 2.6 | 5.2 | 0.00 | 0.11 | 0.11 | 77 | 1006.1 |
| 20260903232506 | 81 | 159 | 0.9 | 4.3 | 0.00 | 0.11 | 0.11 | 77 | 1006.1 |
| 20260903232006 | 81 | 155 | 1.7 | 2.6 | 0.00 | 0.11 | 0.11 | 77 | 1006.2 |
| 20260903231506 | 81 | 155 | 0.9 | 5.2 | 0.00 | 0.11 | 0.11 | 77 | 1006.1 |
| 20260903231006 | 81 | 162 | 0.9 | 4.3 | 0.00 | 0.11 | 0.11 | 77 | 1006.2 |
| 20260903230506 | 82 | 160 | 0.9 | 4.3 | 0.00 | 0.11 | 0.11 | 77 | 1006.2 |
| 20260903230006 | 82 | 161 | 1.7 | 4.3 | 0.00 | 0.11 | 0.11 | 76 | 1006.2 |
| 20260903225506 | 82 | 166 | 2.6 | 4.3 | 0.00 | 0.11 | 0.11 | 76 | 1006.2 |
| 20260903225006 | 82 | 168 | 1.7 | 7.0 | 0.00 | 0.11 | 0.11 | 75 | 1006.0 |
| 20260903224506 | 82 | 174 | 2.6 | 7.8 | 0.00 | 0.11 | 0.11 | 75 | 1006.1 |
| 20260903224006 | 82 | 170 | 1.7 | 7.0 | 0.00 | 0.11 | 0.11 | 75 | 1006.1 |
| 20260903223506 | 82 | 180 | 1.7 | 7.0 | 0.00 | 0.11 | 0.11 | 74 | 1006.2 |
| 20260903223007 | 82 | 162 | 2.6 | 5.2 | 0.00 | 0.11 | 0.11 | 74 | 1006.1 |
| 20260903222506 | 82 | 173 | 1.7 | 4.3 | 0.00 | 0.11 | 0.11 | 75 | 1006.1 |
| 20260903222006 | 82 | 174 | 1.7 | 6.1 | 0.00 | 0.11 | 0.11 | 75 | 1006.1 |
| 20260903221506 | 82 | 163 | 2.6 | 6.1 | 0.00 | 0.11 | 0.11 | 74 | 1006.1 |
| 20260903220506 | 82 | 163 | 2.6 | 6.1 | 0.00 | 0.11 | 0.11 | 73 | 1005.9 |